Time,TemperatureF,DewpointF,PressureIn,WindDirection,WindDirectionDegrees,WindSpeedMPH,WindSpeedGustMPH,Humidity,HourlyPrecipIn,Conditions,Clouds,dailyrainin,SoftwareType,DateUTC
2013-01-05 00:08:00,11.2,0.0,30.07,NW,320,0.0,0.0,0,0.00,CLR,CLR,0.00,WeatherDisplay:10.36,2013-01-05 07:08:00,
2013-01-05 00:23:00,10.7,0.0,30.07,NW,320,0.0,0.0,0,0.00,CLR,CLR,0.00,WeatherDisplay:10.36,2013-01-05 07:23:00,
2013-01-05 00:38:00,9.4,0.0,30.07,NW,320,0.0,0.0,0,0.00,CLR,CLR,0.00,WeatherDisplay:10.36,2013-01-05 07:38:00,
2013-01-05 00:53:00,10.1,0.0,30.07,NW,320,0.0,0.0,0,0.00,CLR,CLR,0.00,WeatherDisplay:10.36,2013-01-05 07:53:00,
2013-01-05 01:08:00,9.9,0.0,30.06,NW,320,0.0,0.0,0,0.00,CLR,CLR,0.00,WeatherDisplay:10.36,2013-01-05 08:08:00,
2013-01-05 01:23:00,10.0,0.0,30.07,NW,320,0.0,0.0,0,0.00,CLR,CLR,0.00,WeatherDisplay:10.36,2013-01-05 08:23:00,
2013-01-05 01:38:00,10.3,0.0,30.06,NW,320,0.0,0.0,0,0.00,CLR,CLR,0.00,WeatherDisplay:10.36,2013-01-05 08:38:00,
2013-01-05 01:53:00,10.8,0.0,30.07,NW,317,0.0,7.0,0,0.00,CLR,CLR,0.00,WeatherDisplay:10.36,2013-01-05 08:53:00,
2013-01-05 02:08:00,10.6,0.0,30.08,NNW,333,1.0,3.0,0,0.00,CLR,CLR,0.00,WeatherDisplay:10.36,2013-01-05 09:08:00,
2013-01-05 02:23:00,9.6,0.0,30.08,ENE,68,0.0,3.0,0,0.00,CLR,CLR,0.00,WeatherDisplay:10.36,2013-01-05 09:23:00,
2013-01-05 02:38:00,9.1,0.0,30.07,NW,313,0.0,3.0,0,0.00,CLR,CLR,0.00,WeatherDisplay:10.36,2013-01-05 09:38:00,
2013-01-05 02:53:00,8.7,0.0,30.07,NW,313,0.0,0.0,0,0.00,CLR,CLR,0.00,WeatherDisplay:10.36,2013-01-05 09:53:00,
2013-01-05 03:08:00,7.8,0.0,30.09,NW,313,0.0,0.0,0,0.00,CLR,CLR,0.00,WeatherDisplay:10.36,2013-01-05 10:08:00,
2013-01-05 03:23:00,7.9,0.0,30.09,NW,312,0.0,5.0,0,0.00,CLR,CLR,0.00,WeatherDisplay:10.36,2013-01-05 10:23:00,
2013-01-05 03:38:00,8.8,0.0,30.09,NW,320,0.0,0.0,0,0.00,CLR,CLR,0.00,WeatherDisplay:10.36,2013-01-05 10:38:00,
2013-01-05 03:53:00,8.7,0.0,30.09,NW,320,0.0,0.0,0,0.00,CLR,CLR,0.00,WeatherDisplay:10.36,2013-01-05 10:53:00,
2013-01-05 04:08:00,8.3,0.0,30.09,NW,320,0.0,0.0,0,0.00,CLR,CLR,0.00,WeatherDisplay:10.36,2013-01-05 11:08:00,
2013-01-05 04:23:00,8.3,0.0,30.11,NW,320,0.0,0.0,0,0.00,CLR,CLR,0.00,WeatherDisplay:10.36,2013-01-05 11:23:00,
2013-01-05 04:38:00,7.8,0.0,30.12,NW,320,0.0,0.0,0,0.00,CLR,CLR,0.00,WeatherDisplay:10.36,2013-01-05 11:38:00,
2013-01-05 04:53:00,7.9,0.0,30.11,NW,312,0.0,6.0,0,0.00,CLR,CLR,0.00,WeatherDisplay:10.36,2013-01-05 11:53:00,
2013-01-05 05:08:00,7.7,0.0,30.11,NW,308,0.0,0.0,0,0.00,CLR,CLR,0.00,WeatherDisplay:10.36,2013-01-05 12:08:00,
2013-01-05 05:23:00,7.8,0.0,30.11,NW,308,0.0,0.0,0,0.00,CLR,CLR,0.00,WeatherDisplay:10.36,2013-01-05 12:23:00,
2013-01-05 05:38:00,8.7,0.0,30.12,NW,308,0.0,0.0,0,0.00,CLR,CLR,0.00,WeatherDisplay:10.36,2013-01-05 12:38:00,
2013-01-05 05:53:00,8.4,0.0,30.13,NW,308,0.0,0.0,0,0.00,CLR,CLR,0.00,WeatherDisplay:10.36,2013-01-05 12:53:00,
2013-01-05 06:08:00,9.0,0.0,30.14,NW,308,0.0,0.0,0,0.00,CLR,CLR,0.00,WeatherDisplay:10.36,2013-01-05 13:08:00,
2013-01-05 06:23:00,7.5,0.0,30.14,NW,308,0.0,0.0,0,0.00,CLR,CLR,0.00,WeatherDisplay:10.36,2013-01-05 13:23:00,
2013-01-05 06:38:00,9.2,0.0,30.16,NW,308,0.0,0.0,0,0.00,CLR,CLR,0.00,WeatherDisplay:10.36,2013-01-05 13:38:00,
2013-01-05 06:53:00,7.7,0.0,30.17,NW,308,0.0,0.0,0,0.00,CLR,CLR,0.00,WeatherDisplay:10.36,2013-01-05 13:53:00,
2013-01-05 07:08:00,9.3,0.0,30.17,NW,325,0.0,7.0,0,0.00,CLR,CLR,0.00,WeatherDisplay:10.36,2013-01-05 14:08:00,
2013-01-05 07:23:00,9.5,0.0,30.17,NW,307,0.0,6.0,0,0.00,CLR,CLR,0.00,WeatherDisplay:10.36,2013-01-05 14:23:00,
2013-01-05 07:38:00,10.2,0.0,30.17,NW,309,0.0,7.0,0,0.00,CLR,CLR,0.00,WeatherDisplay:10.36,2013-01-05 14:38:00,
2013-01-05 07:53:00,10.7,0.0,30.17,WNW,292,0.0,3.0,0,0.00,CLR,CLR,0.00,WeatherDisplay:10.36,2013-01-05 14:53:00,
2013-01-05 08:08:00,15.6,0.0,30.17,WNW,292,2.0,7.0,0,0.00,CLR,CLR,0.00,WeatherDisplay:10.36,2013-01-05 15:08:00,
2013-01-05 08:23:00,16.6,0.0,30.18,WNW,287,0.0,0.0,0,0.00,CLR,CLR,0.00,WeatherDisplay:10.36,2013-01-05 15:23:00,
2013-01-05 08:38:00,17.6,0.0,30.17,WNW,287,0.0,0.0,0,0.00,CLR,CLR,0.00,WeatherDisplay:10.36,2013-01-05 15:38:00,
2013-01-05 08:53:00,20.2,0.0,30.18,WNW,303,0.0,6.0,0,0.00,CLR,CLR,0.00,WeatherDisplay:10.36,2013-01-05 15:53:00,
2013-01-05 09:08:00,22.1,0.0,30.19,NW,312,0.0,0.0,0,0.00,CLR,CLR,0.00,WeatherDisplay:10.36,2013-01-05 16:08:00,
2013-01-05 09:23:00,24.2,0.0,30.19,NW,312,0.0,0.0,0,0.00,CLR,CLR,0.00,WeatherDisplay:10.36,2013-01-05 16:23:00,
2013-01-05 09:38:00,29.4,0.0,30.20,NNW,327,3.0,12.0,0,0.00,CLR,CLR,0.00,WeatherDisplay:10.36,2013-01-05 16:38:00,
2013-01-05 09:53:00,31.9,0.0,30.21,NNW,328,6.0,17.0,0,0.00,CLR,CLR,0.00,WeatherDisplay:10.36,2013-01-05 16:53:00,
2013-01-05 10:08:00,32.3,0.0,30.21,NW,323,6.0,20.0,0,0.00,CLR,CLR,0.00,WeatherDisplay:10.36,2013-01-05 17:08:00,
2013-01-05 10:23:00,33.3,0.0,30.21,NW,311,8.0,20.0,0,0.00,CLR,CLR,0.00,WeatherDisplay:10.36,2013-01-05 17:23:00,
2013-01-05 10:38:00,33.9,0.0,30.21,NW,322,3.0,23.0,0,0.00,CLR,CLR,0.00,WeatherDisplay:10.36,2013-01-05 17:38:00,
2013-01-05 10:53:00,34.2,0.0,30.21,NW,316,10.0,21.0,0,0.00,CLR,CLR,0.00,WeatherDisplay:10.36,2013-01-05 17:53:00,
2013-01-05 11:08:00,35.2,0.0,30.20,NW,320,9.0,20.0,0,0.00,CLR,CLR,0.00,WeatherDisplay:10.36,2013-01-05 18:08:00,
2013-01-05 11:23:00,35.5,0.0,30.19,NW,318,12.0,23.0,0,0.00,CLR,CLR,0.00,WeatherDisplay:10.36,2013-01-05 18:23:00,
2013-01-05 11:38:00,36.4,0.0,30.18,NW,324,9.0,24.0,0,0.00,CLR,CLR,0.00,WeatherDisplay:10.36,2013-01-05 18:38:00,
2013-01-05 11:53:00,37.5,0.0,30.18,NW,324,2.0,20.0,0,0.00,CLR,CLR,0.00,WeatherDisplay:10.36,2013-01-05 18:53:00,
2013-01-05 12:08:00,38.3,0.0,30.17,NW,320,9.0,20.0,0,0.00,CLR,CLR,0.00,WeatherDisplay:10.36,2013-01-05 19:08:00,
2013-01-05 12:23:00,38.8,0.0,30.17,NW,325,3.0,16.0,0,0.00,CLR,CLR,0.00,WeatherDisplay:10.36,2013-01-05 19:23:00,
2013-01-05 12:38:00,38.9,0.0,30.17,NW,315,9.0,18.0,0,0.00,CLR,CLR,0.00,WeatherDisplay:10.36,2013-01-05 19:38:00,
2013-01-05 12:53:00,38.6,0.0,30.17,NW,317,9.0,20.0,0,0.00,CLR,CLR,0.00,WeatherDisplay:10.36,2013-01-05 19:53:00,
2013-01-05 13:08:00,38.5,0.0,30.18,NW,318,8.0,20.0,0,0.00,CLR,CLR,0.00,WeatherDisplay:10.36,2013-01-05 20:08:00,
2013-01-05 13:23:00,38.6,0.0,30.17,NW,319,6.0,22.0,0,0.00,CLR,CLR,0.00,WeatherDisplay:10.36,2013-01-05 20:23:00,
2013-01-05 13:38:00,39.9,0.0,30.18,NW,320,5.0,13.0,0,0.00,CLR,CLR,0.00,WeatherDisplay:10.36,2013-01-05 20:38:00,
2013-01-05 13:53:00,40.3,0.0,30.19,NW,313,0.0,15.0,0,0.00,CLR,CLR,0.00,WeatherDisplay:10.36,2013-01-05 20:53:00,
2013-01-05 14:08:00,36.9,0.0,30.19,WSW,252,3.0,8.0,0,0.00,CLR,CLR,0.00,WeatherDisplay:10.36,2013-01-05 21:08:00,
2013-01-05 14:23:00,37.3,0.0,30.20,South,184,0.0,6.0,0,0.00,CLR,CLR,0.00,WeatherDisplay:10.36,2013-01-05 21:23:00,
2013-01-05 14:38:00,38.8,0.0,30.21,North,2,0.0,5.0,0,0.00,CLR,CLR,0.00,WeatherDisplay:10.36,2013-01-05 21:38:00,
2013-01-05 14:53:00,38.9,0.0,30.21,NNW,335,0.0,0.0,0,0.00,CLR,CLR,0.00,WeatherDisplay:10.36,2013-01-05 21:53:00,
2013-01-05 15:08:00,37.9,0.0,30.22,NE,39,0.0,6.0,0,0.00,CLR,CLR,0.00,WeatherDisplay:10.36,2013-01-05 22:08:00,
2013-01-05 15:23:00,37.2,0.0,30.22,NE,45,0.0,0.0,0,0.00,CLR,CLR,0.00,WeatherDisplay:10.36,2013-01-05 22:23:00,
2013-01-05 15:38:00,36.9,0.0,30.23,NE,45,0.0,0.0,0,0.00,CLR,CLR,0.00,WeatherDisplay:10.36,2013-01-05 22:38:00,
2013-01-05 15:53:00,36.3,0.0,30.23,NW,320,2.0,12.0,0,0.00,CLR,CLR,0.00,WeatherDisplay:10.36,2013-01-05 22:53:00,
2013-01-05 16:08:00,34.1,0.0,30.24,NW,320,0.0,10.0,0,0.00,CLR,CLR,0.00,WeatherDisplay:10.36,2013-01-05 23:08:00,
2013-01-05 16:23:00,33.4,0.0,30.25,NW,319,0.0,12.0,0,0.00,CLR,CLR,0.00,WeatherDisplay:10.36,2013-01-05 23:23:00,
2013-01-05 16:38:00,32.8,0.0,30.26,NW,324,0.0,13.0,0,0.00,CLR,CLR,0.00,WeatherDisplay:10.36,2013-01-05 23:38:00,
2013-01-05 16:53:00,32.1,0.0,30.26,NNW,328,0.0,9.0,0,0.00,CLR,CLR,0.00,WeatherDisplay:10.36,2013-01-05 23:53:00,
2013-01-05 17:08:00,32.2,0.0,30.27,NW,321,1.0,15.0,0,0.00,CLR,CLR,0.00,WeatherDisplay:10.36,2013-01-06 00:08:00,
2013-01-05 17:23:00,31.3,0.0,30.28,NW,323,1.0,16.0,0,0.00,CLR,CLR,0.00,WeatherDisplay:10.36,2013-01-06 00:23:00,
2013-01-05 17:38:00,30.9,0.0,30.28,NNW,329,3.0,13.0,0,0.00,CLR,CLR,0.00,WeatherDisplay:10.36,2013-01-06 00:38:00,
2013-01-05 17:53:00,30.5,0.0,30.28,NNW,330,5.0,15.0,0,0.00,CLR,CLR,0.00,WeatherDisplay:10.36,2013-01-06 00:53:00,
2013-01-05 18:08:00,30.2,0.0,30.27,NW,324,6.0,16.0,0,0.00,CLR,CLR,0.00,WeatherDisplay:10.36,2013-01-06 01:08:00,
2013-01-05 18:23:00,30.4,0.0,30.27,NW,319,10.0,22.0,0,0.00,CLR,CLR,0.00,WeatherDisplay:10.36,2013-01-06 01:23:00,
2013-01-05 18:38:00,30.7,0.0,30.26,NW,319,8.0,22.0,0,0.00,CLR,CLR,0.00,WeatherDisplay:10.36,2013-01-06 01:38:00,
2013-01-05 18:53:00,30.7,0.0,30.27,NW,320,10.0,23.0,0,0.00,CLR,CLR,0.00,WeatherDisplay:10.36,2013-01-06 01:53:00,
2013-01-05 19:08:00,30.8,0.0,30.28,NW,320,7.0,18.0,0,0.00,CLR,CLR,0.00,WeatherDisplay:10.36,2013-01-06 02:08:00,
2013-01-05 19:23:00,30.3,0.0,30.28,NW,321,1.0,16.0,0,0.00,CLR,CLR,0.00,WeatherDisplay:10.36,2013-01-06 02:23:00,
2013-01-05 19:38:00,30.2,0.0,30.29,NW,304,2.0,15.0,0,0.00,CLR,CLR,0.00,WeatherDisplay:10.36,2013-01-06 02:38:00,
2013-01-05 19:53:00,29.7,0.0,30.28,NW,325,1.0,8.0,0,0.00,CLR,CLR,0.00,WeatherDisplay:10.36,2013-01-06 02:53:00,
2013-01-05 20:08:00,28.3,0.0,30.29,NW,325,0.0,8.0,0,0.00,CLR,CLR,0.00,WeatherDisplay:10.36,2013-01-06 03:08:00,
2013-01-05 20:23:00,27.3,0.0,30.28,NW,318,0.0,9.0,0,0.00,CLR,CLR,0.00,WeatherDisplay:10.36,2013-01-06 03:23:00,
2013-01-05 20:38:00,26.8,0.0,30.28,NW,323,0.0,5.0,0,0.00,CLR,CLR,0.00,WeatherDisplay:10.36,2013-01-06 03:38:00,
2013-01-05 20:53:00,26.9,0.0,30.28,NW,318,0.0,8.0,0,0.00,CLR,CLR,0.00,WeatherDisplay:10.36,2013-01-06 03:53:00,
2013-01-05 21:08:00,24.3,0.0,30.28,NW,322,0.0,2.0,0,0.00,CLR,CLR,0.00,WeatherDisplay:10.36,2013-01-06 04:08:00,
2013-01-05 21:23:00,22.9,0.0,30.28,East,89,0.0,5.0,0,0.00,CLR,CLR,0.00,WeatherDisplay:10.36,2013-01-06 04:23:00,
2013-01-05 21:38:00,22.6,0.0,30.29,East,89,0.0,0.0,0,0.00,CLR,CLR,0.00,WeatherDisplay:10.36,2013-01-06 04:38:00,
2013-01-05 21:53:00,21.4,0.0,30.29,East,89,0.0,0.0,0,0.00,CLR,CLR,0.00,WeatherDisplay:10.36,2013-01-06 04:53:00,
2013-01-05 22:08:00,19.9,0.0,30.30,East,89,0.0,0.0,0,0.00,CLR,CLR,0.00,WeatherDisplay:10.36,2013-01-06 05:08:00,
2013-01-05 22:23:00,18.3,0.0,30.29,East,89,0.0,0.0,0,0.00,CLR,CLR,0.00,WeatherDisplay:10.36,2013-01-06 05:23:00,
2013-01-05 22:38:00,17.4,0.0,30.29,East,89,0.0,0.0,0,0.00,CLR,CLR,0.00,WeatherDisplay:10.36,2013-01-06 05:38:00,
2013-01-05 22:53:00,16.5,0.0,30.30,East,89,0.0,0.0,0,0.00,CLR,CLR,0.00,WeatherDisplay:10.36,2013-01-06 05:53:00,
2013-01-05 23:08:00,16.2,0.0,30.29,East,89,0.0,0.0,0,0.00,CLR,CLR,0.00,WeatherDisplay:10.36,2013-01-06 06:08:00,
2013-01-05 23:23:00,16.2,0.0,30.30,East,89,0.0,0.0,0,0.00,CLR,CLR,0.00,WeatherDisplay:10.36,2013-01-06 06:23:00,
2013-01-05 23:38:00,15.9,0.0,30.29,East,89,0.0,0.0,0,0.00,CLR,CLR,0.00,WeatherDisplay:10.36,2013-01-06 06:38:00,
2013-01-05 23:53:00,15.8,0.0,30.30,East,89,0.0,0.0,0,0.00,CLR,CLR,0.00,WeatherDisplay:10.36,2013-01-06 06:53:00,